PSLV R/B

Satellite information

Favourite Embed

Satellite Type and Status

ROCKET BODYIN ORBIT

Key statistics

Satellite PSLV R/B at a glance.

Uptime

3073

Days in orbit

Revolutions

≈ 14.2

Per day

Orbit

SSO

Sun Synchronous Orbit

Inclination

98.6

Latest

Satellite identification and parameters

Extended collection of information and parameters for PSLV R/B.

Object identification

Identified? True

Debris? False

Object name: PSLV R/B

International designator: 2016-074B

Object number (NORAD): 41878

Object ID (CCSDS): 41878

Country: INDIA (IND)

Current information (Y/N): Y

RCS size: LARGE

Orbital parameters

Period: 101.122 minutes

Inclination: 98.6437 deg

SMA: 7189.895 km

Apoapsis: 812.992 km

Periapsis: 810.529 km

RAAN: 217.2205 deg

Eccentricy: 0.0001713

Argument of periapsis: 326.4839 deg

Mean anomaly: 33.6231 deg

Mean motion: 14.24029231 rev/day

Mean motion (dot): 0.00000149 rev/day2

B* drag term: 0.000083656 1/REarth

Two-line elements (TLE)

Creation date: May 7, 2025, 3:14 a.m.

Reference frame: TEME

Reference center: EARTH

Epoch: May 6, 2025, 7:56 p.m. UTC

TLE line 0: 0 PSLV R/B

TLE line 1: 1 41878U 16074B 25126.83122881 .00000149 00000-0 83656-4 0 9991

TLE line 2: 2 41878 98.6437 217.2205 0001713 326.4839 33.6231 14.24029231437137

Live tracking on map

Real-time ground track for satellite PSLV R/B.

In-orbit conjunctions

A list of the most updated potential collisions computed for object PSLV R/B.

Target Orbit TCA Probability of collision Miss distance Type
CZ-6A DEB SSO 2025-04-16 21:29:52 0.0007128712 21.0 (m) DEBRIS
COSMOS 374 DEB LEO 2025-04-01 10:00:29 0.0002701245 559.0 (m) DEBRIS
SL-16 DEB LEO 2025-03-01 08:59:02 0.0002527057 102.0 (m) DEBRIS
CZ-6A DEB LEO 2024-12-24 11:39:33 0.0001701664 365.0 (m) DEBRIS
METEOR 2-8 DEB LEO 2024-08-17 07:05:07 0.0002474483 296.0 (m) DEBRIS

Associated space launch

Resourcesat-2A is a remote sensing satellite, third in the program of the same name. It is intended to provide data continuity for users as a follow on mission to Resourcesat-2.

PSLV R/B was lifted into orbit during the mission ‘PSLV XL | Resourcesat-2A’, on board a PSLV-XL space rocket.

The launch took place on Dec. 7, 2016, 4:54 a.m. from Satish Dhawan Space Centre First Launch Pad.

For more information about the launch, click the button.

Launch to space PSLV XL | Resourcesat-2A
PSLV XL | Resourcesat-2A

Agency: N/A

Status: Launch Successful

Launch date: Dec. 7, 2016, 4:54 a.m. UTC

Rocket: PSLV-XL

Launch pad: Satish Dhawan Space Centre First Launch Pad

Location: Satish Dhawan Space Centre, India

...

Latest news about this satellite

There are no fresh news available about this satellite. Check back as we update our databases every day.


Newsletter sign-up

Weekly statistics, charts and insights to help you stay on top of the space industry.